Weather History for Waukegan, IL

Change the Weather History Date:

Wednesday, October 30, 2013

  Actual Average Record
Temperature  
Mean Temperature 48 °F -  
Max Temperature 58 °F 55 °F 74 °F (1999)
Min Temperature 38 °F 38 °F 29 °F (2011)
Degree Days  
Heating Degree Days 17 18  
Month to date heating degree days 450 422  
Since 1 July heating degree days 628 588  
Cooling Degree Days 0 0  
Month to date cooling degree days 7 7  
Year to date cooling degree days 590 564  
Moisture  
Dew Point 50 °F    
Average Humidity 90    
Maximum Humidity 100    
Minimum Humidity 80    
Precipitation  
Precipitation 0.31 in 0.08 in 0.86 in (2009)
Month to date precipitation 1.15 2.83  
Year to date precipitation 25.56 30.74  
Sea Level Pressure  
Sea Level Pressure 29.98 in    
Wind  
Wind Speed 6 mph (SE)    
Max Wind Speed 18 mph    
Max Gust Speed 23 mph    
Visibility 3 miles    
Events Fog , Rain    
T = Trace of Precipitation, MM = Missing Value Source: NWS Daily Summary

Daily Weather History Graph

Daily Weather History Graph

Search for Another Location

Airport:

Trip Planner

Search our weather history database for the weather conditions in past years. The results will help you decide how hot, cold, wet, or windy it might be!

Date:

Astronomy

Oct. 30, 2013 Rise Set
Actual Time 7:22 AM CDT 5:46 PM CDT
Civil Twilight 6:53 AM CDT 6:15 PM CDT
Nautical Twilight 6:20 AM CDT 6:49 PM CDT
Astronomical Twilight 5:47 AM CDT 7:21 PM CDT
Moon 3:06 AM CDT 3:36 PM CDT
Length of Visible Light 11h 22m
Length of Day
10h 24m
Waning Crescent, 17% of the Moon is Illuminated
Oct 30
Waning Crescent
Nov 3
New
Nov 9
First Quarter
Nov 17
Full
Nov 25
Last Quarter

Hourly Weather History & Observations

Time (CDT) Temp. Windchill Dew Point Humidity Pressure Visibility Wind Dir Wind Speed Gust Speed Precip Events Conditions
12:52 AM 48.0 °F - 43.0 °F 83% 30.14 in 7.0 mi Calm Calm - N/A   Overcast
1:25 AM 46.4 °F - 42.8 °F 87% 30.13 in 7.0 mi Calm Calm - N/A   Overcast
1:40 AM 44.6 °F - 42.8 °F 93% 30.13 in 6.0 mi Calm Calm - N/A   Overcast
1:52 AM 45.0 °F - 43.0 °F 93% 30.14 in 6.0 mi Calm Calm - N/A   Mostly Cloudy
2:12 AM 42.8 °F - 42.8 °F 100% 30.12 in 5.0 mi Calm Calm - N/A   Scattered Clouds
2:48 AM 44.6 °F - 42.8 °F 93% 30.12 in 5.0 mi Calm Calm - N/A   Overcast
2:52 AM 45.0 °F - 44.1 °F 97% 30.13 in 5.0 mi Calm Calm - N/A   Overcast
3:47 AM 46.4 °F - 42.8 °F 87% 30.10 in 7.0 mi Calm Calm - N/A   Overcast
3:52 AM 46.9 °F - 43.0 °F 86% 30.11 in 7.0 mi Calm Calm - N/A   Overcast
4:52 AM 43.0 °F 41.3 °F 41.0 °F 93% 30.12 in 6.0 mi South 3.5 mph - N/A   Clear
5:44 AM 41.0 °F - 39.2 °F 93% 30.11 in 2.5 mi Calm Calm - N/A   Clear
5:52 AM 41.0 °F - 39.9 °F 96% 30.13 in 4.0 mi Calm Calm - N/A   Clear
6:52 AM 37.9 °F - 37.0 °F 97% 30.11 in 4.0 mi Calm Calm - N/A   Clear
7:52 AM 37.9 °F - 37.9 °F 100% 30.12 in 4.0 mi Calm Calm - N/A   Partly Cloudy
8:52 AM 46.9 °F - 46.0 °F 97% 30.12 in 4.0 mi Calm Calm - N/A   Overcast
8:59 AM 48.2 °F - 46.4 °F 93% 30.10 in 4.0 mi Calm Calm - N/A   Overcast
9:52 AM 50.0 °F - 46.9 °F 89% 30.12 in 4.0 mi SE 8.1 mph - N/A   Overcast
9:59 AM 50.0 °F - 46.4 °F 87% 30.10 in 2.5 mi ESE 6.9 mph - N/A   Overcast
10:52 AM 51.1 °F - 48.0 °F 89% 30.09 in 2.5 mi SE 9.2 mph - N/A   Overcast
11:52 AM 51.1 °F - 48.9 °F 92% 30.07 in 2.0 mi SE 10.4 mph - N/A   Overcast
12:52 PM 52.0 °F - 50.0 °F 93% 30.03 in 2.0 mi SE 9.2 mph - N/A   Overcast
1:05 PM 51.8 °F - 50.0 °F 94% 30.01 in 1.8 mi SE 8.1 mph - N/A   Overcast
1:52 PM 52.0 °F - 50.0 °F 93% 30.02 in 1.2 mi SE 8.1 mph - N/A   Overcast
2:23 PM 51.8 °F - 51.8 °F 100% 30.00 in 2.0 mi SE 6.9 mph - N/A   Overcast
2:52 PM 52.0 °F - 51.1 °F 97% 29.99 in 2.0 mi SE 8.1 mph - N/A   Overcast
3:42 PM 53.6 °F - 51.8 °F 94% 29.96 in 2.0 mi ESE 6.9 mph - N/A   Overcast
3:52 PM 53.1 °F - 51.1 °F 93% 29.97 in 2.0 mi SE 8.1 mph - N/A   Overcast
4:15 PM 53.6 °F - 51.8 °F 94% 29.95 in 1.5 mi SE 6.9 mph - N/A   Overcast
4:52 PM 52.0 °F - 51.1 °F 97% 29.94 in 1.5 mi SE 6.9 mph - N/A   Overcast
5:32 PM 53.6 °F - 51.8 °F 94% 29.92 in 2.5 mi SSE 9.2 mph - 0.00 in Rain Light Rain
5:40 PM 53.6 °F - 51.8 °F 94% 29.92 in 3.0 mi SSE 10.4 mph - 0.00 in Rain Light Rain
5:52 PM 53.1 °F - 53.1 °F 100% 29.94 in 2.5 mi SSE 8.1 mph - 0.01 in Rain Light Rain
6:41 PM 53.6 °F - 53.6 °F 100% 29.94 in 2.0 mi South 8.1 mph - 0.07 in Rain Rain
6:52 PM 54.0 °F - 54.0 °F 100% 29.95 in 2.0 mi South 6.9 mph - 0.09 in Rain Rain
7:13 PM 55.4 °F - 55.4 °F 100% 29.95 in 1.8 mi SSW 5.8 mph - 0.06 in Rain Rain
7:29 PM 55.4 °F - 55.4 °F 100% 29.93 in 2.0 mi South 5.8 mph - 0.10 in Rain Light Rain
7:52 PM 55.9 °F - 55.0 °F 97% 29.92 in 2.0 mi South 5.8 mph - 0.13 in Rain Light Rain
8:07 PM 55.4 °F - 55.4 °F 100% 29.89 in 2.5 mi SSE 5.8 mph - 0.02 in Rain Light Rain
8:38 PM 55.4 °F - 55.4 °F 100% 29.86 in 2.0 mi SE 4.6 mph - 0.04 in Rain Light Rain
8:52 PM 55.0 °F - 55.0 °F 100% 29.86 in 1.5 mi SE 6.9 mph - 0.05 in Rain Light Rain
9:04 PM 55.4 °F - 55.4 °F 100% 29.84 in 1.2 mi SE 9.2 mph - 0.01 in Rain Light Rain
9:13 PM 55.4 °F - 55.4 °F 100% 29.83 in 0.8 mi SE 10.4 mph - 0.01 in Rain Light Rain
9:23 PM 55.4 °F - 55.4 °F 100% 29.83 in 0.5 mi SE 9.2 mph - 0.01 in Fog , Rain Light Rain
9:52 PM 55.9 °F - 55.9 °F 100% 29.81 in 1.0 mi SSE 11.5 mph - 0.02 in Rain Light Rain
10:17 PM 55.4 °F - 55.4 °F 100% 29.78 in 0.5 mi SSE 16.1 mph 23.0 mph 0.01 in Fog , Rain Light Rain
10:38 PM 55.4 °F - 55.4 °F 100% 29.78 in 0.2 mi SSE 13.8 mph - 0.01 in Fog Fog
10:52 PM 55.9 °F - 55.9 °F 100% 29.78 in 0.5 mi SSE 13.8 mph - 0.01 in Fog Fog
11:23 PM 55.4 °F - 55.4 °F 100% 29.77 in 1.0 mi SSE 9.2 mph - N/A   Mist
11:35 PM 55.4 °F - 55.4 °F 100% 29.75 in 0.5 mi SE 9.2 mph - N/A Fog Fog
11:45 PM 55.4 °F - 55.4 °F 100% 29.75 in 0.2 mi SSE 5.8 mph - N/A Fog Fog
11:52 PM 55.9 °F - 55.9 °F 100% 29.75 in 0.5 mi SSE 5.8 mph - N/A Fog Fog